CW6641 Weather Reports


Display with metric or nautical units.
time (UTC)temp
F
wind
direction
speed
MPH
gust
MPH
rain 1hr
in
rain 24hr
in
rain mn
in
humidity
%
barometer
mb
20260901181925 94 0.0 0.0 0.00 0.00 0.00 48 1018.4
20260901181420 93 0.0 0.0 0.00 0.00 0.00 48 1018.4
20260901180919 93 0.0 0.0 0.00 0.00 0.00 48 1018.3
20260901180419 93 0.0 0.0 0.00 0.00 0.00 50 1018.4
20260901175917 93 0.0 0.0 0.00 0.00 0.00 48 1018.7
20260901175412 93 0.0 0.0 0.00 0.00 0.00 50 1018.8
20260901174907 93 0.0 0.0 0.00 0.00 0.00 49 1018.6
20260901174403 93 0.0 0.0 0.00 0.00 0.00 51 1018.5
20260901173858 93 0.0 0.0 0.00 0.00 0.00 51 1018.9
20260901173353 93 0.0 0.0 0.00 0.00 0.00 53 1018.8
20260901172850 92 0.0 0.0 0.00 0.00 0.00 52 1018.8
20260901172349 92 0.0 0.0 0.00 0.00 0.00 53 1018.8
20260901171847 92 0.0 0.0 0.00 0.00 0.00 54 1018.6
20260901171346 92 0.0 0.0 0.00 0.00 0.00 53 1018.7
20260901170845 92 0.0 0.0 0.00 0.00 0.00 53 1019.0
20260901170340 92 0.0 0.0 0.00 0.00 0.00 53 1018.9
20260901165840 92 0.0 0.0 0.00 0.00 0.00 55 1019.0
20260901165334 92 0.0 0.0 0.00 0.00 0.00 53 1019.2
20260901164830 92 0.0 0.0 0.00 0.00 0.00 54 1019.1
20260901164320 92 0.0 0.0 0.00 0.00 0.00 55 1019.0
20260901163814 91 0.0 0.0 0.00 0.00 0.00 57 1019.0
20260901163309 91 0.0 0.0 0.00 0.00 0.00 58 1019.1
20260901162804 91 0.0 0.0 0.00 0.00 0.00 58 1019.2
20260901162306 91 0.0 0.0 0.00 0.00 0.00 59 1019.0
20260901161802 91 0.0 0.0 0.00 0.00 0.00 59 1019.2
20260901161256 90 0.0 0.0 0.00 0.00 0.00 58 1019.4
20260901160752 90 0.0 0.0 0.00 0.00 0.00 60 1019.2
20260901160249 90 0.0 0.0 0.00 0.00 0.00 60 1019.2
20260901155747 89 0.0 0.0 0.00 0.00 0.00 60 1019.4
20260901155242 89 0.0 0.0 0.00 0.00 0.00 61 1019.4
20260901154738 89 0.0 0.0 0.00 0.00 0.00 62 1019.6
20260901154232 89 0.0 0.0 0.00 0.00 0.00 62 1019.5
20260901153728 89 0.0 0.0 0.00 0.00 0.00 62 1019.5
20260901153227 88 0.0 0.0 0.00 0.00 0.00 63 1019.5
20260901152721 88 0.0 0.0 0.00 0.00 0.00 63 1019.6
20260901152220 87 0.0 0.0 0.00 0.00 0.00 65 1019.5
20260901151716 87 0.0 0.0 0.00 0.00 0.00 66 1019.6
20260901151215 87 0.0 0.0 0.00 0.00 0.00 65 1019.5
20260901150715 86 0.0 0.0 0.00 0.00 0.00 66 1019.5
20260901150213 86 0.0 0.0 0.00 0.00 0.00 69 1019.3
20260901145711 86 0.0 0.0 0.00 0.00 0.00 68 1019.5
20260901145205 85 0.0 0.0 0.00 0.00 0.00 69 1019.5
20260901144701 85 0.0 0.0 0.00 0.00 0.00 70 1019.5
20260901144156 84 0.0 0.0 0.00 0.00 0.00 70 1019.6
20260901143651 84 0.0 0.0 0.00 0.00 0.00 72 1019.5
20260901143148 84 0.0 0.0 0.00 0.00 0.00 72 1019.4
20260901142644 83 0.0 0.0 0.00 0.00 0.00 72 1019.4
20260901142142 83 0.0 0.0 0.00 0.00 0.00 73 1019.6
20260901141637 82 0.0 0.0 0.00 0.00 0.00 75 1019.6
20260901141137 82 0.0 0.0 0.00 0.00 0.00 75 1019.4
20260901140636 81 0.0 0.0 0.00 0.00 0.00 76 1019.5
20260901140135 81 0.0 0.0 0.00 0.00 0.00 77 1019.2
20260901135630 81 0.0 0.0 0.00 0.00 0.00 77 1019.6
20260901135125 80 0.0 0.0 0.00 0.00 0.00 78 1019.5
20260901134621 80 0.0 0.0 0.00 0.00 0.00 78 1019.6
20260901134116 80 0.0 0.0 0.00 0.00 0.00 78 1019.7
20260901133615 79 0.0 0.0 0.00 0.00 0.00 79 1019.4
20260901133114 79 0.0 0.0 0.00 0.00 0.00 78 1019.6
20260901132608 79 0.0 0.0 0.00 0.00 0.00 79 1019.7
20260901132102 78 0.0 0.0 0.00 0.00 0.00 79 1019.7
20260901131602 78 0.0 0.0 0.00 0.00 0.00 79 1019.7
20260901131057 78 0.0 0.0 0.00 0.00 0.00 80 1019.6
20260901130552 77 0.0 0.0 0.00 0.00 0.00 80 1019.6
20260901130050 77 0.0 0.0 0.00 0.00 0.00 80 1019.6
20260901125549 77 0.0 0.0 0.00 0.00 0.00 81 1019.5
20260901125044 77 0.0 0.0 0.00 0.00 0.00 81 1019.4
20260901124544 76 0.0 0.0 0.00 0.00 0.00 81 1019.5
20260901124039 76 0.0 0.0 0.00 0.00 0.00 82 1019.5
20260901123534 76 0.0 0.0 0.00 0.00 0.00 82 1019.5
20260901123034 76 0.0 0.0 0.00 0.00 0.00 83 1019.4
20260901122532 75 0.0 0.0 0.00 0.00 0.00 83 1019.4
20260901122032 75 0.0 0.0 0.00 0.00 0.00 83 1019.5
20260901121532 75 0.0 0.0 0.00 0.00 0.00 83 1019.1
20260901121022 75 0.0 0.0 0.00 0.00 0.00 83 1019.6
20260901120522 75 0.0 0.0 0.00 0.00 0.00 83 1019.3
20260901120017 75 0.0 0.0 0.00 0.00 0.00 83 1019.3
20260901115512 75 0.0 0.0 0.00 0.00 0.00 83 1019.0
20260901115009 74 0.0 0.0 0.00 0.00 0.00 83 1019.0
20260901114505 74 0.0 0.0 0.00 0.00 0.00 83 1019.1
20260901114003 74 0.0 0.0 0.00 0.00 0.00 83 1018.8
20260901113502 75 0.0 0.0 0.00 0.00 0.00 83 1018.9
20260901112957 75 0.0 0.0 0.00 0.00 0.00 83 1018.6
20260901112452 75 0.0 0.0 0.00 0.00 0.00 83 1018.7
20260901111947 75 0.0 0.0 0.00 0.00 0.00 83 1018.5
20260901111446 75 0.0 0.0 0.00 0.00 0.00 83 1018.7
20260901110944 75 0.0 0.0 0.00 0.00 0.00 83 1018.5
20260901110440 75 0.0 0.0 0.00 0.00 0.00 83 1018.4
20260901105936 74 0.0 0.0 0.00 0.00 0.00 84 1018.5
20260901105432 74 0.0 0.0 0.00 0.00 0.00 84 1018.4
20260901104927 74 0.0 0.0 0.00 0.00 0.00 84 1018.5
20260901104422 74 0.0 0.0 0.00 0.00 0.00 84 1018.4
20260901103917 74 0.0 0.0 0.00 0.00 0.00 84 1018.2
20260901103412 74 0.0 0.0 0.00 0.00 0.00 83 1018.5
20260901102907 74 0.0 0.0 0.00 0.00 0.00 83 1018.5
20260901102401 74 0.0 0.0 0.00 0.00 0.00 83 1018.3
20260901101857 74 0.0 0.0 0.00 0.00 0.00 83 1018.2
20260901101357 75 0.0 0.0 0.00 0.00 0.00 82 1018.2
20260901100856 75 0.0 0.0 0.00 0.00 0.00 82 1018.3
20260901100351 75 0.0 0.0 0.00 0.00 0.00 82 1018.3
20260901095851 75 0.0 0.0 0.00 0.00 0.00 82 1018.2
20260901095348 75 0.0 0.0 0.00 0.00 0.00 83 1018.2
20260901094842 74 0.0 0.0 0.00 0.00 0.00 83 1018.2
20260901094337 74 0.0 0.0 0.00 0.00 0.00 83 1018.2
20260901093832 74 0.0 0.0 0.00 0.00 0.00 82 1018.1
20260901093331 74 0.0 0.0 0.00 0.00 0.00 82 1018.1
20260901092827 74 0.0 0.0 0.00 0.00 0.00 82 1018.0
20260901092323 75 0.0 0.0 0.00 0.00 0.00 81 1018.1
20260901091819 75 0.0 0.0 0.00 0.00 0.00 81 1018.0
20260901091318 75 0.0 0.0 0.00 0.00 0.00 81 1018.0
20260901090813 75 0.0 0.0 0.00 0.00 0.00 81 1018.0
20260901090308 75 0.0 0.0 0.00 0.00 0.00 82 1017.8
20260901085804 75 0.0 0.0 0.00 0.00 0.00 82 1018.0
20260901085259 76 0.0 0.0 0.00 0.00 0.00 82 1017.9
20260901084756 76 0.0 0.0 0.00 0.00 0.00 81 1017.8
20260901084252 76 0.0 0.0 0.00 0.00 0.00 81 1017.8
20260901083752 75 0.0 0.0 0.00 0.00 0.00 81 1017.8
20260901083251 75 0.0 0.0 0.00 0.00 0.00 82 1017.4
20260901082750 75 0.0 0.0 0.00 0.00 0.00 82 1017.7
20260901082245 75 0.0 0.0 0.00 0.00 0.00 82 1017.6
20260901081741 75 0.0 0.0 0.00 0.00 0.00 82 1017.7
20260901081240 75 0.0 0.0 0.00 0.00 0.00 82 1017.6
20260901080736 75 0.0 0.0 0.00 0.00 0.00 81 1017.6
20260901080234 76 0.0 0.0 0.00 0.00 0.00 81 1017.4
20260901075729 76 0.0 0.0 0.00 0.00 0.00 81 1017.6
20260901075224 76 0.0 0.0 0.00 0.00 0.00 81 1017.6
20260901074718 76 0.0 0.0 0.00 0.00 0.00 80 1017.3
20260901074214 76 0.0 0.0 0.00 0.00 0.00 80 1017.5
20260901073710 76 0.0 0.0 0.00 0.00 0.00 80 1017.5
20260901073205 76 0.0 0.0 0.00 0.00 0.00 80 1017.6
20260901072700 76 0.0 0.0 0.00 0.00 0.00 80 1017.6
20260901072154 76 0.0 0.0 0.00 0.00 0.00 80 1017.7
20260901071649 77 0.0 0.0 0.00 0.00 0.00 79 1017.5
20260901071149 77 0.0 0.0 0.00 0.00 0.00 79 1017.8
20260901070643 77 0.0 0.0 0.00 0.00 0.00 79 1017.7
20260901070138 77 0.0 0.0 0.00 0.00 0.00 79 1017.7
20260901065637 77 0.0 0.0 0.00 0.00 0.00 79 1017.7
20260901065132 77 0.0 0.0 0.00 0.00 0.00 79 1017.6
20260901064629 77 0.0 0.0 0.00 0.00 0.00 78 1017.7
20260901064125 77 0.0 0.0 0.00 0.00 0.00 78 1017.8
20260901063622 77 0.0 0.0 0.00 0.00 0.00 77 1017.9
20260901063118 77 0.0 0.0 0.00 0.00 0.00 77 1017.9
20260901062614 77 0.0 0.0 0.00 0.00 0.00 77 1017.9
20260901062110 77 0.0 0.0 0.00 0.00 0.00 78 1018.0
20260901061606 77 0.0 0.0 0.00 0.00 0.00 78 1017.9
20260901061105 77 0.0 0.0 0.00 0.00 0.00 78 1018.1
20260901060600 77 0.0 0.0 0.00 0.00 0.00 77 1018.0
20260901060055 77 0.0 0.0 0.00 0.00 0.00 78 1018.2
20260901055550 77 0.0 0.0 0.00 0.00 0.00 77 1018.2
20260901055047 77 0.0 0.0 0.00 0.00 0.00 78 1018.2
20260901054544 77 0.0 0.0 0.00 0.00 0.00 77 1018.0
20260901054040 77 0.0 0.0 0.00 0.00 0.00 77 1018.1
20260901053536 77 0.0 0.0 0.00 0.00 0.00 77 1018.3
20260901053031 78 0.0 0.0 0.00 0.00 0.00 75 1018.3
20260901052526 78 0.0 0.0 0.00 0.00 0.00 74 1018.2
20260901052026 78 0.0 0.0 0.00 0.00 0.00 74 1018.1
20260901051521 79 0.0 0.0 0.00 0.00 0.00 74 1018.0
20260901051019 79 0.0 0.0 0.00 0.00 0.00 74 1018.0
20260901050515 79 0.0 0.0 0.00 0.00 0.00 73 1018.0
20260901050010 79 0.0 0.0 0.00 0.00 0.00 74 1017.8
20260901045505 79 0.0 0.0 0.00 0.00 0.00 74 1018.0
20260901045000 79 0.0 0.0 0.00 0.00 0.00 74 1017.8
20260901044456 78 0.0 0.0 0.00 0.00 0.00 75 1017.9
20260901043952 78 0.0 0.0 0.00 0.00 0.00 76 1017.8
20260901043447 78 0.0 0.0 0.00 0.00 0.00 76 1017.8
20260901042942 79 0.0 0.0 0.00 0.00 0.00 75 1017.9
20260901042441 79 0.0 0.0 0.00 0.00 0.00 74 1017.8
20260901041937 79 0.0 0.0 0.00 0.00 0.00 74 1018.0
20260901041432 79 0.0 0.0 0.00 0.00 0.00 74 1017.8
20260901040931 79 0.0 0.0 0.00 0.00 0.00 74 1017.8
20260901040427 79 0.0 0.0 0.00 0.00 0.00 74 1018.0
20260901035925 79 0.0 0.0 0.00 0.00 0.00 74 1017.7
20260901035424 79 0.0 0.0 0.00 0.00 0.00 75 1018.0
20260901034923 78 0.0 0.0 0.00 0.00 0.00 75 1017.7
20260901034418 78 0.0 0.0 0.00 0.00 0.00 76 1017.7
20260901033913 78 0.0 0.0 0.00 0.00 0.00 75 1017.5
20260901033412 79 0.0 0.0 0.00 0.00 0.00 74 1017.8
20260901032911 79 0.0 0.0 0.00 0.00 0.00 74 1018.0
20260901032410 79 0.0 0.0 0.00 0.00 0.00 73 1017.8
20260901031905 79 0.0 0.0 0.00 0.00 0.00 73 1017.9
20260901031401 79 0.0 0.0 0.00 0.00 0.00 72 1018.1
20260901030900 79 0.0 0.0 0.00 0.00 0.00 72 1018.0
20260901030356 80 0.0 0.0 0.00 0.00 0.00 72 1018.0
20260901025854 80 0.0 0.0 0.00 0.00 0.00 71 1017.8
20260901025350 80 0.0 0.0 0.00 0.00 0.00 71 1017.9
20260901024844 80 0.0 0.0 0.00 0.00 0.00 71 1017.8
20260901024344 80 0.0 0.0 0.00 0.00 0.00 70 1017.9
20260901023842 80 0.0 0.0 0.00 0.00 0.00 70 1017.9
20260901023338 81 0.0 0.0 0.00 0.00 0.00 69 1017.6
20260901022833 81 0.0 0.0 0.00 0.00 0.00 69 1017.6
20260901022329 81 0.0 0.0 0.00 0.00 0.00 69 1017.9
20260901021824 81 0.0 0.0 0.00 0.00 0.00 68 1017.7
20260901021319 82 0.0 0.0 0.00 0.00 0.00 68 1017.8
20260901020814 82 0.0 0.0 0.00 0.00 0.00 67 1017.8
20260901020309 82 0.0 0.0 0.00 0.00 0.00 67 1017.8
20260901015804 82 0.0 0.0 0.00 0.00 0.00 67 1017.8
20260901015300 83 0.0 0.0 0.00 0.00 0.00 66 1017.6
20260901014759 83 0.0 0.0 0.00 0.00 0.00 65 1017.7
20260901014255 84 0.0 0.0 0.00 0.00 0.00 64 1017.6
20260901013751 84 0.0 0.0 0.00 0.00 0.00 64 1017.6
20260901013246 84 0.0 0.0 0.00 0.00 0.00 63 1017.5
20260901012741 84 0.0 0.0 0.00 0.00 0.00 63 1017.4
20260901012241 85 0.0 0.0 0.00 0.00 0.00 62 1017.5
20260901011737 85 0.0 0.0 0.00 0.00 0.00 61 1017.2
20260901011232 86 0.0 0.0 0.00 0.00 0.00 60 1017.2
20260901010726 86 0.0 0.0 0.00 0.00 0.00 60 1017.3
20260901010221 86 0.0 0.0 0.00 0.00 0.00 60 1017.0
20260901005720 87 0.0 0.0 0.00 0.00 0.00 59 1017.1
20260901005215 87 0.0 0.0 0.00 0.00 0.00 58 1017.1
20260901004715 88 0.0 0.0 0.00 0.00 0.00 58 1017.0
20260901004209 88 0.0 0.0 0.00 0.00 0.00 57 1017.2
20260901003703 88 0.0 0.0 0.00 0.00 0.00 56 1016.9
20260901003204 89 0.0 0.0 0.00 0.00 0.00 55 1017.1
20260901002657 89 0.0 0.0 0.00 0.00 0.00 55 1016.8
20260901002152 89 0.0 0.0 0.00 0.00 0.00 54 1016.8
20260901001648 89 0.0 0.0 0.00 0.00 0.00 54 1016.9
20260901001143 89 0.0 0.0 0.00 0.00 0.00 53 1016.7
20260901000638 89 0.0 0.0 0.00 0.00 0.00 53 1016.7
20260901000133 90 0.0 0.0 0.00 0.00 0.00 53 1016.6
20260831235627 90 0.0 0.0 0.00 0.00 0.00 52 1016.8
20260831235122 90 0.0 0.0 0.00 0.00 0.00 52 1016.6
20260831234621 91 0.0 0.0 0.00 0.00 0.00 51 1016.9
20260831234117 91 0.0 0.0 0.00 0.00 0.00 51 1016.8
20260831233612 91 0.0 0.0 0.00 0.00 0.00 51 1016.8
20260831233108 91 0.0 0.0 0.00 0.00 0.00 52 1016.8
20260831232603 91 0.0 0.0 0.00 0.00 0.00 51 1016.7
20260831232059 91 0.0 0.0 0.00 0.00 0.00 51 1016.8
20260831231555 91 0.0 0.0 0.00 0.00 0.00 51 1016.8
20260831231050 92 0.0 0.0 0.00 0.00 0.00 51 1017.1
20260831230545 92 0.0 0.0 0.00 0.00 0.00 50 1016.6
20260831230040 92 0.0 0.0 0.00 0.00 0.00 50 1016.8
20260831225535 92 0.0 0.0 0.00 0.00 0.00 49 1017.0
20260831225030 92 0.0 0.0 0.00 0.00 0.00 49 1016.9
20260831224525 93 0.0 0.0 0.00 0.00 0.00 49 1017.1
20260831224020 93 0.0 0.0 0.00 0.00 0.00 49 1016.9
20260831223515 93 0.0 0.0 0.00 0.00 0.00 49 1016.9
20260831223012 93 0.0 0.0 0.00 0.00 0.00 48 1017.2
20260831222508 93 0.0 0.0 0.00 0.00 0.00 48 1016.8
20260831222007 93 0.0 0.0 0.00 0.00 0.00 49 1017.0
20260831221503 93 0.0 0.0 0.00 0.00 0.00 48 1016.9
20260831220958 93 0.0 0.0 0.00 0.00 0.00 48 1017.0
20260831220453 93 0.0 0.0 0.00 0.00 0.00 48 1017.0
20260831215948 94 0.0 0.0 0.00 0.00 0.00 48 1016.8
20260831215444 94 0.0 0.0 0.00 0.00 0.00 48 1017.1
20260831214940 94 0.0 0.0 0.00 0.00 0.00 47 1017.1
20260831214437 94 0.0 0.0 0.00 0.00 0.00 48 1017.2
20260831213933 94 0.0 0.0 0.00 0.00 0.00 45 1017.3
20260831213429 94 0.0 0.0 0.00 0.00 0.00 46 1017.1
20260831212929 94 0.0 0.0 0.00 0.00 0.00 46 1017.4
20260831212425 94 0.0 0.0 0.00 0.00 0.00 47 1017.1
20260831211925 94 0.0 0.0 0.00 0.00 0.00 47 1017.4
20260831211420 94 0.0 0.0 0.00 0.00 0.00 48 1017.3
20260831210914 94 0.0 0.0 0.00 0.00 0.00 48 1017.3
20260831210409 95 0.0 0.0 0.00 0.00 0.00 46 1017.4
20260831205905 95 0.0 0.0 0.00 0.00 0.00 47 1017.6
20260831205400 95 0.0 0.0 0.00 0.00 0.00 47 1017.5
20260831204855 95 0.0 0.0 0.00 0.00 0.00 47 1017.5
20260831204354 95 0.0 0.0 0.00 0.00 0.00 46 1017.6
20260831203854 95 0.0 0.0 0.00 0.00 0.00 46 1017.8
20260831203349 95 0.0 0.0 0.00 0.00 0.00 46 1017.9
20260831202847 95 0.0 0.0 0.00 0.00 0.00 45 1017.8
20260831202342 95 0.0 0.0 0.00 0.00 0.00 47 1018.0
20260831201842 95 0.0 0.0 0.00 0.00 0.00 46 1017.8
20260831201340 95 0.0 0.0 0.00 0.00 0.00 47 1018.0
20260831200837 95 0.0 0.0 0.00 0.00 0.00 47 1018.3
20260831200332 95 0.0 0.0 0.00 0.00 0.00 47 1018.0
20260831195827 95 0.0 0.0 0.00 0.00 0.00 49 1018.2
20260831195322 94 0.0 0.0 0.00 0.00 0.00 48 1018.3
20260831194818 94 0.0 0.0 0.00 0.00 0.00 47 1018.1
20260831194313 94 0.0 0.0 0.00 0.00 0.00 48 1018.2
20260831193812 93 0.0 0.0 0.00 0.00 0.00 50 1018.2
20260831193307 94 0.0 0.0 0.00 0.00 0.00 47 1018.2
20260831192802 94 0.0 0.0 0.00 0.00 0.00 48 1018.3
20260831192257 93 0.0 0.0 0.00 0.00 0.00 50 1018.5
20260831191753 93 0.0 0.0 0.00 0.00 0.00 48 1018.4
20260831191249 93 0.0 0.0 0.00 0.00 0.00 50 1018.5
20260831190745 94 0.0 0.0 0.00 0.00 0.00 49 1018.4
20260831190244 94 0.0 0.0 0.00 0.00 0.00 49 1018.7
20260831185738 93 0.0 0.0 0.00 0.00 0.00 49 1018.7
20260831185235 93 0.0 0.0 0.00 0.00 0.00 50 1018.5
20260831184733 93 0.0 0.0 0.00 0.00 0.00 49 1018.6
20260831184229 93 0.0 0.0 0.00 0.00 0.00 51 1018.8
20260831183724 93 0.0 0.0 0.00 0.00 0.00 50 1018.8
20260831183223 93 0.0 0.0 0.00 0.00 0.00 51 1018.9
20260831182723 93 0.0 0.0 0.00 0.00 0.00 52 1018.8